Location: Bailen
(14.1842°N, 120.7958°E)
Time: 17:41:48
(UTC+00:00)

Cosmos 1943 - Pass Details

Date: 12 January 2026
Orbit: 830 x 850 km, 71.0° (Epoch: 17 February)

Event Time Altitude Azimuth Distance (km) Brightness Sun altitude
Exits shadow 19:50:57 38° 100° (E) 1,275 4.4 -36.1°
Drops below altitude 10° 19:55:10 10° 142° (SE) 2,464 6.2 -35.1°
Sets 19:57:44 0° 149° (SSE) 3,397 6.9 -34.5°
